Weather History for Ocala, FL

Change the Weather History Date:

Friday, July 26, 2013

  Actual Average Record
Temperature  
Mean Temperature 81 °F -  
Max Temperature 91 °F 88 °F 95 °F (1996)
Min Temperature 71 °F 70 °F 68 °F (2005)
Cooling Degree Days 16    
Growing Degree Days 31 (Base 50)    
Moisture  
Dew Point 69 °F    
Average Humidity 78    
Maximum Humidity 89    
Minimum Humidity 49    
Precipitation  
Precipitation 0.00 in - - ()
Sea Level Pressure  
Sea Level Pressure 29.99 in    
Wind  
Wind Speed 1 mph (WNW)    
Max Wind Speed 12 mph    
Max Gust Speed 17 mph    
Visibility 8 miles    
Events Fog    
Averages and records for this station are not official NWS values.
T = Trace of Precipitation, MM = Missing Value Source: NWS Daily Summary

Daily Weather History Graph

Daily Weather History Graph

Search for Another Location

Airport:

Trip Planner

Search our weather history database for the weather conditions in past years. The results will help you decide how hot, cold, wet, or windy it might be!

Date:

Astronomy

Jul. 26, 2013 Rise Set
Actual Time 6:46 AM EDT 8:24 PM EDT
Civil Twilight 6:20 AM EDT 8:50 PM EDT
Nautical Twilight 5:48 AM EDT 9:21 PM EDT
Astronomical Twilight 5:16 AM EDT 9:54 PM EDT
Moon 11:06 PM EDT (7/26) 10:54 AM EDT (7/26)
Length of Visible Light 14h 30m
Length of Day
13h 38m
Waning Gibbous, 80% of the Moon is Illuminated
Jul 26
Waning Gibbous
Jul 29
Last Quarter
Aug 6
New
Aug 14
First Quarter
Aug 20
Full

Hourly Weather History & Observations

Time (EDT) Temp. Heat Index Dew Point Humidity Pressure Visibility Wind Dir Wind Speed Gust Speed Precip Events Conditions
12:15 AM 73.4 °F - 69.8 °F 88% 30.00 in 10.0 mi SW 3.5 mph - N/A   Clear
12:35 AM 73.4 °F - 69.8 °F 88% 29.99 in 9.0 mi Calm Calm - N/A   Clear
12:55 AM 73.4 °F - 69.8 °F 88% 29.99 in 9.0 mi Calm Calm - N/A   Clear
1:15 AM 73.4 °F - 68.0 °F 83% 29.98 in 8.0 mi Calm Calm - N/A   Clear
1:35 AM 73.4 °F - 69.8 °F 88% 29.97 in 7.0 mi Calm Calm - N/A   Clear
1:55 AM 73.4 °F - 68.0 °F 83% 29.97 in 5.0 mi Calm Calm - N/A   Clear
2:15 AM 73.4 °F - 68.0 °F 83% 29.97 in 5.0 mi Calm Calm - N/A   Clear
2:35 AM 73.4 °F - 68.0 °F 83% 29.96 in 4.0 mi Calm Calm - N/A   Clear
2:55 AM 71.6 °F - 68.0 °F 88% 29.96 in 6.0 mi Calm Calm - N/A   Clear
3:15 AM 71.6 °F - 68.0 °F 88% 29.96 in 8.0 mi Calm Calm - N/A   Clear
3:35 AM 71.6 °F - 68.0 °F 88% 29.97 in 7.0 mi Calm Calm - N/A   Clear
3:55 AM 71.6 °F - 68.0 °F 88% 29.97 in 5.0 mi South 3.5 mph - N/A   Clear
4:15 AM 71.6 °F - 68.0 °F 88% 29.97 in 5.0 mi Calm Calm - N/A   Clear
4:35 AM 71.6 °F - 68.0 °F 88% 29.97 in 4.0 mi Calm Calm - N/A   Clear
4:55 AM 71.6 °F - 68.0 °F 88% 29.97 in 5.0 mi Calm Calm - N/A   Partly Cloudy
5:15 AM 71.6 °F - 68.0 °F 88% 29.97 in 7.0 mi Calm Calm - N/A   Clear
5:35 AM 71.6 °F - 66.2 °F 83% 29.97 in 5.0 mi Calm Calm - N/A   Clear
5:55 AM 71.6 °F - 66.2 °F 83% 29.98 in 3.0 mi Calm Calm - N/A   Partly Cloudy
6:15 AM 71.6 °F - 66.2 °F 83% 29.99 in 4.0 mi Calm Calm - N/A   Partly Cloudy
6:35 AM 71.6 °F - 66.2 °F 83% 29.99 in 6.0 mi Calm Calm - N/A   Mostly Cloudy
6:50 AM 71.6 °F - 68.0 °F 88% 29.99 in 2.0 mi Calm Calm - N/A   Overcast
7:28 AM 73.4 °F - 68.0 °F 83% 30.00 in 0.5 mi Calm Calm - N/A Fog Fog
7:50 AM 73.4 °F - 69.8 °F 88% 30.01 in 0.2 mi Calm Calm - N/A Fog Fog
8:50 AM 75.2 °F - 71.6 °F 89% 30.02 in 1.0 mi Calm Calm - N/A   Mostly Cloudy
9:05 AM 77.0 °F - 71.6 °F 83% 30.02 in 7.0 mi Calm Calm - N/A   Scattered Clouds
9:50 AM 80.6 °F 84.6 °F 71.6 °F 74% 30.02 in 10.0 mi Calm Calm - N/A   Clear
10:50 AM 86.0 °F 93.4 °F 73.4 °F 66% 30.02 in 10.0 mi North 3.5 mph - N/A   Mostly Cloudy
11:50 AM 86.0 °F 91.8 °F 71.6 °F 62% 30.02 in 10.0 mi West 5.8 mph - N/A   Mostly Cloudy
12:50 PM 89.6 °F 96.2 °F 71.6 °F 55% 30.02 in 10.0 mi North 4.6 mph - N/A   Mostly Cloudy
1:50 PM 89.6 °F 96.2 °F 71.6 °F 55% 30.01 in 10.0 mi NW 6.9 mph - N/A   Scattered Clouds
3:50 PM 91.4 °F 96.8 °F 69.8 °F 49% 29.97 in 10.0 mi North 5.8 mph - N/A   Partly Cloudy
4:50 PM 89.6 °F 96.2 °F 71.6 °F 55% 29.97 in 10.0 mi West 11.5 mph 17.3 mph N/A   Partly Cloudy
5:50 PM 84.2 °F 88.4 °F 69.8 °F 62% 29.97 in 10.0 mi West 6.9 mph - N/A   Clear
6:50 PM 84.2 °F 88.4 °F 69.8 °F 62% 29.97 in 10.0 mi WNW 5.8 mph - N/A   Clear
7:55 PM 80.6 °F 83.9 °F 69.8 °F 70% 29.98 in 10.0 mi SE 4.6 mph - N/A   Partly Cloudy
8:15 PM 80.6 °F 83.9 °F 69.8 °F 70% 29.98 in 10.0 mi Calm Calm - N/A   Clear
8:35 PM 78.8 °F - 69.8 °F 74% 29.99 in 10.0 mi Calm Calm - N/A   Clear
8:55 PM 78.8 °F - 69.8 °F 74% 29.99 in 10.0 mi Calm Calm - N/A   Mostly Cloudy
9:15 PM 78.8 °F - 69.8 °F 74% 30.00 in 10.0 mi Calm Calm - N/A   Overcast
9:35 PM 78.8 °F - 69.8 °F 74% 30.00 in 10.0 mi Calm Calm - N/A   Overcast
9:55 PM 78.8 °F - 69.8 °F 74% 30.01 in 10.0 mi Calm Calm - N/A   Mostly Cloudy
10:15 PM 78.8 °F - 69.8 °F 74% 30.01 in 10.0 mi Calm Calm - N/A   Partly Cloudy
10:35 PM 78.8 °F - 69.8 °F 74% 30.01 in 10.0 mi Calm Calm - N/A   Scattered Clouds
10:55 PM 78.8 °F - 69.8 °F 74% 30.01 in 10.0 mi Calm Calm - N/A   Scattered Clouds
11:15 PM 78.8 °F - 69.8 °F 74% 30.02 in 10.0 mi Calm Calm - N/A   Scattered Clouds
11:35 PM 78.8 °F - 69.8 °F 74% 30.02 in 10.0 mi Calm Calm - N/A   Mostly Cloudy
11:55 PM 78.8 °F - 69.8 °F 74% 30.02 in 10.0 mi Calm Calm - N/A   Mostly Cloudy